User: anonymous   Login
Location: Unspecified
(54.1780°N, 0.0000°E)
Time: 11:58:14
(UTC+00:00)
Language:

S-56A Canister/Altair - Orbit

View from above orbital plane
View from above orbital plane
View from above satellite
View from above satellite

Ground track
Ground track

The orbit data is extracted from the following two-line orbital elements,

1    82U 61004B   19169.89449985 +.00000018 +00000-0 +59871-4 0  9996
2    82 038.8551 108.2510 1174567 124.1125 247.6646 12.26037948763065
Epoch (UTC): 18 June 2019 21:28:04
Eccentricity: 0.1174567
inclination: 38.8551°
perigee height: 633 km
apogee height: 2499 km
right ascension of ascending node: 108.2510°
argument of perigee: 124.1125°
revolutions per day: 12.26037948
mean anomaly at epoch: 247.6646°
orbit number at epoch: 76306

The dashed part of the orbit path shows where the satellite is in the earth's shadow,  

DLR